GFSSGP_sfc_temp_276.txt.gz
Temp
86 97 100 97 86 87 79 79 86 83 85 93 94 91 90 94 89 83 100 104 105 103 96 88 80 81 81 81 81 80 80 80 80 80 80 80 80 80 80 80 81 81 82 82 81 81 81 81 81
99 96 99 96 82 79 79 84 83 87 92 93 93 93 90 89 98 97 99 101 104 101 95 93 80 80 81 81 80 80 80 80 80 80 80 80 80 80 80 80 81 81 82 81 81 81 80 80 80
96 97 94 90 85 79 81 83 87 90 94 94 91 94 93 91 97 99 101 101 102 99 97 92 80 80 81 80 80 80 80 80 80 80 80 80 80 80 80 80 81 81 82 81 81 80 80 80 80
98 97 95 82 81 86 85 87 87 89 94 97 94 90 96 96 96 98 99 102 103 102 100 83 80 80 80 80 80 80 80 80 80 80 80 80 80 80 80 80 81 81 81 81 80 80 81 81 81
99 96 83 80 83 89 89 90 91 89 91 93 94 89 91 93 94 97 99 101 101 102 101 90 79 80 80 80 80 79 79 79 79 80 80 80 80 80 80 80 81 81 80 80 80 80 81 80 80
90 92 79 78 83 88 89 92 92 91 92 93 93 90 92 94 92 95 100 100 103 101 99 92 81 80 80 80 79 79 79 79 79 79 79 79 79 80 80 80 81 80 80 80 80 80 80 80 79
86 84 80 82 82 83 87 94 91 91 92 90 96 88 92 90 94 96 98 100 102 100 100 94 91 85 79 79 79 79 79 79 79 79 79 79 79 79 80 80 80 80 80 80 80 80 80 79 78
89 86 81 82 80 81 88 90 93 92 90 98 96 89 90 92 93 94 98 99 99 98 101 97 94 94 92 90 79 79 79 79 79 79 79 79 79 80 80 79 80 80 80 80 79 80 80 78 78
90 80 78 81 80 83 88 86 93 96 93 95 95 93 94 93 94 94 94 96 93 97 100 100 99 98 97 97 88 80 79 79 79 80 79 80 92 91 87 82 81 80 80 79 79 79 79 78 77
84 80 81 86 86 84 87 86 88 89 91 93 94 97 92 92 94 95 94 95 91 97 99 101 100 98 99 98 93 91 92 91 91 91 89 92 94 94 95 87 80 80 80 79 78 78 79 80 99
84 79 86 83 86 87 86 86 90 88 87 94 90 94 94 92 92 96 97 98 97 99 97 99 96 95 98 98 96 95 95 94 93 91 91 92 94 92 93 94 92 92 83 94 88 89 96 95 99
78 84 85 85 86 85 83 88 85 89 91 97 97 98 97 92 94 97 98 101 100 96 97 98 96 92 93 97 96 96 96 95 94 93 90 91 90 91 93 95 96 93 96 95 93 99 93 93 93
79 83 84 86 86 86 87 84 86 88 95 98 97 97 97 98 96 96 97 98 100 98 97 97 96 91 91 91 94 94 93 94 95 94 92 93 92 91 93 93 95 95 97 96 95 96 94 93 92
83 84 83 84 85 85 82 85 86 90 94 94 95 96 98 96 97 96 94 95 95 96 96 97 95 91 92 89 91 92 92 94 93 94 94 90 92 91 93 92 93 94 95 97 96 95 93 93 95
82 76 81 82 84 83 86 80 82 91 91 91 93 95 96 97 97 95 96 93 95 95 95 93 92 92 88 88 89 90 93 94 93 93 91 90 89 89 88 92 92 94 94 92 92 90 91 91 92
77 78 73 83 82 83 82 75 87 90 88 90 93 94 95 96 97 99 98 96 95 94 92 92 94 92 88 88 89 91 93 92 92 92 93 90 89 88 86 90 92 94 91 91 91 91 91 91 91
74 70 72 75 81 81 79 77 86 89 87 87 91 93 93 95 95 92 94 96 97 93 93 91 90 92 90 87 88 89 89 89 89 90 92 90 90 90 87 90 92 90 90 90 91 90 89 88 89
70 69 72 71 77 78 77 77 84 88 86 87 88 90 91 91 89 90 92 92 94 96 92 90 90 88 88 88 85 86 88 80 87 85 87 88 89 90 88 90 89 88 89 89 89 86 88 89 88
72 70 69 74 77 73 75 77 81 86 87 87 88 87 86 86 88 89 89 90 91 92 92 89 87 86 86 86 84 85 83 82 81 80 83 85 87 89 86 89 89 86 86 86 84 84 82 86 87
70 68 69 73 76 74 75 74 81 84 83 83 82 81 81 84 85 85 86 87 88 88 89 89 87 85 85 87 86 88 90 92 87 81 79 83 85 85 85 85 88 85 88 83 82 82 85 86 86
70 68 69 69 73 75 73 71 76 79 79 79 80 80 80 80 80 82 83 84 86 86 86 88 88 86 85 85 86 85 87 86 87 82 81 80 80 84 85 86 86 84 85 86 81 81 81 84 85
65 73 72 69 67 64 74 64 72 76 75 75 76 78 79 80 82 83 83 83 83 83 88 88 88 86 86 85 85 82 84 81 84 85 87 83 81 81 81 81 83 84 86 86 84 85 83 81 83
68 76 72 71 68 68 67 65 74 75 71 70 73 75 77 80 81 81 83 83 84 83 86 89 88 87 85 84 82 85 81 87 86 85 81 81 82 83 84 82 82 82 83 84 83 81 79 85 85
74 71 70 70 68 58 65 65 69 72 70 68 71 73 75 78 80 81 83 83 83 85 83 83 85 85 85 84 82 81 82 82 87 86 85 85 85 84 82 84 83 82 82 82 79 80 79 80 83
71 66 56 54 56 54 70 66 69 65 67 68 68 71 74 77 79 79 80 81 80 80 79 79 78 77 80 84 83 82 81 81 81 83 85 85 85 86 82 81 78 75 76 78 77 76 79 79 80
68 66 58 48 52 59 65 58 64 67 69 70 70 72 74 76 78 78 79 80 81 78 78 78 77 76 77 79 77 80 81 83 84 83 84 82 86 79 77 76 75 74 72 74 74 74 78 81 81
64 59 65 58 61 56 63 60 63 66 66 67 69 70 71 74 75 77 79 79 80 79 77 77 77 77 77 75 75 75 78 79 79 80 78 73 74 76 75 75 73 72 67 67 68 70 76 78 78
63 65 53 57 42 42 55 57 59 61 63 67 67 68 70 73 76 77 78 78 79 81 81 80 79 78 78 78 79 77 73 73 73 74 75 75 77 76 75 74 73 69 69 65 65 67 76 76 77
61 60 59 57 52 43 43 48 61 60 63 63 65 66 68 71 74 76 78 80 81 82 83 80 80 79 78 78 79 78 79 75 71 71 72 74 76 76 75 74 71 72 66 67 64 64 69 74 76
61 59 59 50 47 54 53 49 65 63 64 64 64 65 68 70 72 73 74 76 78 79 80 79 79 80 80 79 78 77 78 77 74 70 70 71 72 74 76 75 74 74 73 69 67 66 67 73 75

GFSSGP_sfc_temp_279.txt.gz
Temp
87 99 107 103 87 90 84 82 92 87 89 97 98 96 90 81 89 75 109 109 109 104 95 89 80 81 81 81 81 81 80 80 80 80 80 80 80 80 80 81 81 82 82 82 82 81 81 81 81
104 105 105 97 84 82 82 90 86 92 96 98 98 97 95 93 103 101 104 108 109 102 95 93 80 80 81 81 80 80 80 80 80 80 80 80 80 80 80 81 81 82 82 82 81 81 81 81 81
99 105 95 91 87 83 78 89 91 94 98 97 96 99 98 95 102 104 107 108 109 102 98 91 80 80 81 81 80 80 80 80 80 80 80 80 80 80 80 81 81 82 82 82 81 81 81 81 81
103 102 98 85 82 91 91 92 91 93 98 100 98 94 101 103 103 106 107 109 108 105 102 82 80 80 80 80 80 80 80 80 80 80 80 80 80 80 80 81 81 82 81 81 81 81 81 81 81
102 98 86 84 86 93 96 96 94 93 95 96 98 92 96 100 102 104 105 107 107 106 102 89 80 80 80 80 80 80 80 80 80 80 80 80 80 80 80 81 81 81 81 81 81 81 81 82 82
93 96 82 81 87 94 98 98 96 94 97 97 96 95 95 101 100 104 107 106 109 105 100 91 81 80 80 80 80 80 79 79 80 80 80 80 80 80 80 81 81 81 80 81 81 81 81 81 81
89 90 83 86 87 90 94 100 95 94 95 95 99 92 94 99 101 103 105 108 108 107 101 92 90 84 80 79 79 79 79 79 79 79 79 80 80 80 80 81 81 80 80 80 81 81 81 81 80
94 91 84 87 86 87 96 95 100 95 94 102 100 87 76 97 101 104 106 106 107 106 103 95 92 93 90 89 79 79 79 79 79 79 79 79 80 80 80 80 80 80 80 81 81 81 81 80 79
96 83 81 85 87 90 97 91 100 101 96 99 100 96 98 99 101 102 103 105 105 104 103 100 98 96 95 95 87 80 80 80 79 80 80 80 91 90 88 84 80 81 81 81 81 81 81 81 80
89 83 84 94 94 91 94 92 95 93 95 97 98 100 96 99 100 99 100 100 102 102 104 103 100 98 99 99 91 90 91 90 89 90 88 90 93 96 94 88 81 81 81 81 81 81 81 81 95
90 82 92 92 92 94 93 93 96 92 91 97 97 99 100 96 98 101 102 103 101 98 102 104 99 97 101 102 95 94 95 94 92 91 92 91 97 96 95 94 91 89 82 91 86 88 91 97 98
84 90 91 93 92 90 89 94 92 93 94 103 102 101 102 97 97 100 103 104 103 102 103 104 102 98 98 103 99 97 98 96 95 94 92 92 92 94 94 97 97 94 94 96 95 99 93 93 94
87 89 92 92 92 91 93 90 90 92 99 102 102 101 101 102 100 100 104 106 106 103 103 103 102 97 96 97 99 99 98 98 98 97 94 94 93 92 95 96 97 98 99 97 96 96 94 94 94
91 90 90 91 91 91 87 88 91 93 99 98 98 99 102 103 103 101 98 99 102 103 100 102 100 95 96 94 96 96 97 98 98 97 96 92 94 93 95 94 94 96 97 98 97 95 93 93 94
89 83 87 88 89 88 90 83 85 95 98 94 96 99 101 102 102 101 101 97 97 100 100 98 98 96 92 92 93 95 97 98 96 96 95 93 91 92 91 94 94 96 89 96 93 93 92 92 93
83 83 76 88 88 89 87 77 90 96 94 92 95 98 99 101 101 100 102 101 99 97 95 96 100 98 92 92 93 95 96 96 97 96 96 93 92 90 89 92 94 96 91 91 92 92 92 92 92
80 73 76 82 88 86 84 79 91 96 92 90 94 97 98 99 98 96 98 100 100 99 97 94 94 97 94 90 92 92 93 94 96 96 96 92 92 92 89 92 93 92 94 93 92 91 90 90 89
74 75 78 78 84 84 82 81 89 92 91 90 92 95 97 97 93 94 95 96 96 97 97 95 94 92 93 92 90 93 93 94 95 94 94 93 91 91 88 92 92 92 92 92 91 88 91 89 90
81 77 76 82 87 79 80 81 85 90 90 90 92 93 93 93 93 93 93 94 94 94 95 93 92 91 91 91 89 89 89 92 92 88 86 87 85 88 87 88 86 89 89 89 87 87 84 87 89
77 74 74 80 84 80 78 78 85 88 89 91 91 92 89 90 90 89 91 92 92 91 90 93 91 90 89 91 90 92 91 93 92 90 87 87 85 86 88 86 88 89 89 86 85 83 86 85 89
75 72 73 74 80 80 77 76 79 86 89 88 87 87 88 87 87 88 89 89 90 89 90 90 91 89 89 88 90 89 90 92 92 91 85 85 85 86 84 85 87 88 87 87 83 83 82 84 88
68 79 76 75 73 67 78 64 76 82 80 82 84 86 86 86 88 88 88 87 88 89 91 92 90 90 89 89 87 86 87 86 91 90 89 87 83 83 84 82 85 85 88 85 84 85 84 81 82
72 80 77 74 72 71 73 67 76 81 76 78 81 82 84 86 86 86 86 86 89 89 89 88 89 89 89 89 86 87 84 89 92 91 88 85 82 81 83 82 81 80 82 82 83 83 82 85 83
80 76 75 75 72 60 69 70 71 77 78 78 79 80 81 84 85 85 87 86 85 88 87 84 82 82 81 86 84 82 81 84 87 89 87 87 86 84 83 83 81 80 81 82 83 83 81 80 81
75 69 58 56 58 57 72 69 72 73 79 79 77 78 81 83 84 84 84 85 83 83 84 85 80 78 79 79 79 79 81 78 79 83 87 86 87 86 83 82 82 82 81 82 82 78 78 78 79
71 68 59 48 52 60 70 63 64 74 77 78 79 79 80 81 83 83 82 83 83 81 81 82 81 80 81 80 78 78 78 78 78 79 81 82 81 81 81 82 82 78 78 78 78 78 79 79 80
68 62 70 58 63 58 64 65 69 73 72 74 75 76 76 78 80 81 83 83 84 83 81 80 80 80 80 80 80 79 77 75 76 78 79 77 78 76 80 79 79 77 77 76 74 76 74 77 76
69 73 58 60 45 43 55 54 51 61 67 72 72 74 74 77 80 81 82 82 84 84 84 83 82 80 80 80 80 80 78 79 73 72 74 75 76 74 76 77 77 77 76 76 74 75 75 74 76
65 63 64 62 55 47 46 51 59 59 54 62 70 71 73 75 77 79 81 82 84 85 85 82 82 82 81 80 80 78 79 78 76 71 69 70 72 73 74 75 77 77 77 76 74 75 75 74 75
67 63 60 49 50 55 56 55 67 62 64 63 67 70 72 74 76 78 80 80 80 80 81 81 80 82 82 81 80 78 78 78 77 71 75 69 70 71 72 76 76 78 77 76 74 74 76 75 75

GFSSGP_sfc_temp_285.txt.gz
Temp
74 81 79 77 65 63 58 66 76 81 83 87 85 78 71 73 71 67 87 86 82 78 79 81 81 81 81 81 80 80 80 79 79 79 79 79 80 80 80 80 80 81 81 81 81 81 81 81 81
79 86 81 74 60 54 58 71 74 75 86 89 82 77 74 71 79 78 82 85 82 79 78 79 80 81 81 80 80 80 80 79 79 79 79 79 79 80 80 80 80 81 81 81 81 81 81 81 81
80 84 70 64 59 60 60 74 78 85 91 89 81 84 76 72 83 83 90 86 81 79 78 79 80 80 80 80 80 80 79 79 79 80 79 79 79 79 79 80 80 81 81 81 81 81 81 81 80
79 76 72 60 59 71 72 78 87 86 88 90 81 77 78 83 79 85 90 86 82 79 78 80 80 80 80 80 80 80 79 79 79 79 79 79 79 79 79 80 80 80 81 81 81 80 80 81 81
77 70 58 56 62 73 82 84 84 81 82 86 88 80 72 78 84 90 89 87 83 78 77 79 80 80 80 80 80 80 79 79 79 79 79 79 79 79 79 79 80 80 80 81 81 80 80 80 80
69 69 55 53 63 75 81 86 87 83 83 86 83 81 75 82 81 86 91 88 88 78 77 78 80 80 80 80 80 79 79 79 79 79 79 79 79 79 79 79 80 80 80 80 80 80 79 79 79
64 60 57 61 68 72 79 83 82 83 84 83 85 74 74 75 88 84 88 91 83 81 77 77 78 79 80 79 79 79 79 79 78 78 78 79 79 79 79 79 79 79 79 79 79 80 79 79 79
72 65 61 63 66 68 80 79 81 84 85 94 91 73 72 78 95 88 84 87 82 81 78 75 76 77 77 78 79 79 79 79 78 78 78 78 79 79 79 78 79 79 79 79 79 79 79 79 78
76 59 55 63 67 72 79 77 84 88 87 90 86 81 83 81 86 88 83 83 83 80 78 77 76 75 76 76 79 79 80 79 79 78 78 77 74 74 77 78 79 79 79 79 79 79 79 79 79
67 56 62 74 76 73 77 78 82 84 83 83 82 81 81 83 84 83 84 83 82 78 79 78 78 77 77 82 76 75 78 76 75 75 75 73 73 74 80 79 79 80 79 79 79 79 79 79 76
69 63 72 78 80 79 78 79 82 81 74 82 78 78 79 81 80 85 85 86 85 82 82 81 80 80 80 81 75 73 73 73 73 74 74 72 77 75 77 75 78 74 78 75 77 75 75 73 74
64 74 76 80 82 78 76 79 80 78 79 88 85 83 81 79 81 85 89 88 88 84 85 84 83 81 83 80 77 76 77 75 74 74 74 74 72 74 74 74 74 73 74 73 74 73 74 74 78
67 74 78 81 80 75 80 77 77 78 86 90 88 88 84 85 86 87 86 77 74 72 82 85 85 83 83 79 79 79 79 78 78 78 77 77 74 74 76 75 76 74 76 75 73 74 74 77 78
74 74 75 77 76 74 73 76 74 80 86 87 87 85 84 84 86 86 81 74 69 71 72 87 86 85 82 82 81 81 82 81 80 80 79 79 76 75 76 76 76 76 77 77 76 75 75 74 75
75 68 73 75 75 72 76 70 73 81 85 82 85 85 85 84 84 77 78 76 71 71 74 81 85 86 86 83 83 83 74 83 81 81 79 81 78 77 76 75 76 78 78 79 78 76 75 74 76
66 64 55 70 76 78 73 62 76 81 80 80 82 84 86 80 78 78 77 74 73 71 75 74 79 84 80 83 82 82 80 76 81 80 81 81 79 78 76 75 75 77 77 77 76 76 72 71 70
58 54 59 67 76 76 73 65 76 81 78 78 79 81 82 79 75 73 76 77 72 75 73 74 81 85 81 79 79 80 80 80 80 79 79 82 81 80 75 74 74 75 77 76 76 74 74 71 70
53 55 60 64 74 73 69 66 74 79 78 77 78 78 78 78 76 75 73 77 78 78 79 84 77 75 79 78 78 78 79 78 78 78 78 79 80 79 75 76 76 74 75 75 76 74 72 72 72
66 64 63 69 76 71 67 68 72 76 71 73 76 77 76 77 78 80 80 80 79 78 79 80 80 80 76 76 75 75 76 76 77 78 80 78 78 78 76 75 74 73 74 74 75 72 72 70 70
66 63 62 70 75 68 66 65 72 73 70 74 76 76 75 73 75 78 77 78 78 77 76 78 79 78 79 80 76 77 77 77 78 78 78 78 78 76 76 74 73 73 72 73 72 72 69 69 69
65 61 62 62 70 69 65 60 65 72 74 74 71 76 75 74 73 75 76 76 77 76 74 74 77 78 78 78 77 77 79 78 76 75 74 76 78 77 75 74 73 73 72 72 72 72 70 68 68
58 70 70 68 61 52 61 47 59 66 69 72 70 73 74 74 75 76 74 74 75 76 75 74 73 73 78 79 77 77 76 72 75 77 74 74 75 76 75 75 75 74 73 72 72 73 70 69 67
66 72 68 66 58 51 59 48 55 63 64 68 68 72 72 74 74 73 74 75 76 77 72 71 73 74 74 73 74 75 76 74 76 77 74 69 72 73 74 73 72 71 73 72 72 71 70 69 68
76 70 67 60 54 45 52 52 54 60 63 68 70 73 73 73 73 73 74 74 74 73 71 71 74 69 71 74 73 71 70 71 72 72 73 71 71 70 72 74 71 72 70 71 71 72 71 70 70
66 56 48 45 40 41 57 52 52 51 53 72 70 70 72 73 72 72 71 71 70 69 69 70 69 71 72 74 72 71 70 69 69 69 70 71 70 71 72 73 71 72 72 71 72 70 70 72 69
59 52 47 36 38 43 54 49 51 58 56 60 56 64 66 64 70 70 71 72 69 69 68 68 67 66 68 73 72 71 70 70 68 67 68 70 70 72 75 74 73 71 70 71 70 70 68 69 70
58 49 58 47 46 40 46 55 57 57 54 54 53 55 59 62 69 70 72 70 67 67 67 67 66 66 67 66 65 69 70 70 69 69 69 69 69 70 72 73 71 70 71 71 70 68 68 67 67
52 60 42 44 33 31 42 47 47 50 49 53 51 52 55 59 64 69 71 68 70 67 66 66 66 65 66 66 66 66 66 66 67 69 67 68 68 68 68 69 71 72 72 71 70 68 68 68 67
50 46 48 46 42 35 31 40 52 52 51 51 51 52 52 54 63 69 70 70 67 66 65 65 66 65 65 64 65 65 65 66 65 65 66 67 67 68 68 68 69 69 70 69 69 69 70 69 69
52 46 44 36 38 43 38 38 53 53 52 51 51 53 52 53 56 63 68 64 65 64 64 64 64 64 65 65 64 63 65 65 64 63 64 66 66 65 67 67 66 67 69 68 68 68 69 68 67

GFSSGP_sfc_temp_291.txt.gz
Temp
71 73 71 72 63 58 54 61 70 73 75 80 81 78 74 73 72 64 72 77 76 76 77 79 80 80 80 80 80 79 79 79 79 79 79 79 79 79 79 79 80 80 81 80 80 80 80 81 81
72 76 72 65 56 50 55 63 67 72 74 79 79 77 75 73 76 72 73 77 78 77 77 78 80 80 80 80 79 79 79 79 79 79 79 79 79 79 79 79 80 80 80 80 80 80 80 80 80
72 75 66 59 49 51 54 64 70 75 79 78 77 81 78 75 81 77 78 78 78 76 77 78 80 80 80 80 79 79 79 79 79 79 79 79 79 79 79 79 79 80 80 80 80 80 80 79 79
72 69 63 56 53 58 62 67 76 75 77 79 78 75 78 80 82 83 80 79 76 75 76 79 80 80 80 80 79 79 79 79 79 79 79 79 79 78 78 79 79 79 80 80 80 79 80 80 79
67 60 52 46 50 60 67 71 72 71 75 75 78 74 74 79 83 82 80 79 75 74 75 78 79 80 80 80 79 79 79 79 79 79 79 79 79 78 78 79 79 79 79 79 80 79 79 79 79
62 58 49 45 52 63 66 71 70 73 75 76 74 74 73 79 78 79 80 78 78 75 76 77 79 80 80 80 79 79 78 78 78 78 78 78 78 78 78 79 79 79 79 79 79 79 79 78 78
59 53 46 45 56 61 68 73 74 70 72 74 77 71 72 75 81 80 80 79 77 77 77 77 77 78 80 79 79 79 78 78 78 78 78 78 78 78 78 79 79 79 78 78 79 79 79 78 78
61 57 46 48 54 60 68 72 74 74 73 83 82 71 70 76 81 82 79 77 75 76 76 75 75 75 74 75 79 79 78 78 78 78 78 78 78 78 78 78 78 79 78 78 78 79 78 78 78
63 53 45 50 55 64 68 68 75 80 76 78 80 76 76 79 81 78 74 74 72 76 77 76 76 75 74 74 77 78 79 79 78 78 78 76 72 73 74 77 78 79 79 78 78 78 78 78 78
59 50 54 62 62 65 68 65 72 76 76 76 78 79 79 80 77 74 72 70 71 72 75 76 75 76 74 78 74 73 75 74 73 73 73 72 71 71 76 76 78 79 79 78 78 78 78 77 71
55 55 60 65 68 65 68 70 72 70 65 73 76 77 77 77 77 74 74 73 72 73 74 76 73 74 76 74 72 72 71 72 72 72 72 70 72 69 70 70 71 71 75 72 72 71 70 69 70
53 64 63 67 67 64 66 71 72 72 75 80 80 79 77 76 75 76 74 73 75 73 74 76 76 75 76 72 73 71 71 71 70 71 71 69 68 68 68 69 70 70 70 70 69 69 70 68 71
56 63 65 68 67 65 67 70 70 71 78 79 78 80 76 76 74 78 76 76 73 73 76 73 73 73 73 74 73 71 72 71 71 70 70 69 68 67 68 69 69 69 69 69 69 69 70 70 70
62 63 65 65 66 63 63 68 70 75 78 77 77 78 76 76 75 75 74 73 73 74 74 76 74 74 74 73 72 73 73 72 70 69 70 70 68 67 68 69 69 69 70 70 70 70 69 69 69
61 59 62 62 61 64 65 65 65 75 72 76 75 75 76 74 74 75 77 75 76 76 75 77 76 76 76 75 74 74 74 74 72 72 71 70 69 69 69 69 69 70 70 70 70 70 68 68 69
58 54 49 60 65 68 65 56 69 73 69 73 75 72 76 71 75 77 78 77 77 76 74 76 80 78 76 77 75 77 71 71 73 73 72 73 73 71 69 69 70 70 71 69 68 68 67 67 66
51 46 48 57 63 64 61 60 70 73 70 71 72 69 70 66 69 75 78 77 76 73 69 71 76 77 75 74 75 74 71 70 72 70 71 73 75 76 72 72 70 71 71 70 69 68 69 66 66
46 47 48 51 60 62 57 59 66 71 68 70 65 65 66 67 67 70 73 73 72 70 70 70 70 71 75 70 74 70 69 70 70 73 73 75 75 77 73 71 72 70 70 70 70 69 69 68 68
54 51 51 59 66 58 59 57 65 67 64 65 64 64 65 67 67 68 71 72 73 72 70 69 69 69 69 68 70 69 69 74 72 70 73 73 72 72 70 72 72 70 70 70 70 69 69 68 66
55 51 52 58 63 58 59 59 63 65 66 63 63 65 65 63 66 69 69 69 70 69 70 70 69 69 69 69 69 70 70 72 75 72 74 73 73 72 71 74 74 70 69 69 69 69 67 67 65
53 51 53 54 62 59 57 54 58 64 62 63 65 66 66 65 64 65 66 66 67 67 69 69 70 70 70 71 71 69 70 72 71 73 73 74 74 74 72 73 72 70 70 70 68 68 68 68 65
48 60 59 57 52 46 55 46 51 52 54 56 56 61 63 65 67 67 65 64 65 65 67 67 69 70 71 72 72 71 70 67 69 70 71 70 72 72 72 71 69 72 71 68 68 69 67 68 67
54 60 58 58 51 45 47 44 48 48 50 49 54 60 61 64 65 63 64 64 65 65 64 66 67 67 68 69 71 70 69 69 69 70 71 70 70 71 70 69 69 68 67 67 67 67 67 66 67
63 56 52 49 45 40 45 45 43 43 46 49 52 57 60 61 62 62 62 63 62 63 63 65 65 65 67 67 67 68 67 67 67 68 68 70 70 69 71 70 68 68 67 67 67 68 67 66 66
56 45 35 35 35 36 46 43 40 51 51 51 52 54 59 61 61 61 59 59 61 61 62 65 63 62 65 65 66 66 67 67 66 67 68 68 69 70 69 69 67 67 67 67 67 67 67 66 65
47 44 36 29 30 34 46 39 41 52 54 54 54 55 57 56 59 60 61 60 62 62 62 63 61 61 62 62 61 63 63 64 65 65 66 65 66 67 70 70 70 69 68 68 68 67 68 67 66
47 38 43 37 36 32 38 42 49 54 52 52 52 53 53 55 58 59 62 62 62 63 61 61 62 61 61 61 62 61 60 60 59 60 63 64 65 66 66 67 69 70 69 68 68 68 68 67 67
47 50 37 34 25 25 33 37 39 47 47 49 49 50 52 54 55 57 58 61 61 61 61 63 62 61 60 60 59 60 60 61 58 58 58 59 62 63 64 64 65 66 68 68 67 67 68 67 65
44 40 39 36 36 31 27 32 47 47 49 47 48 51 52 52 54 56 56 59 61 62 62 61 62 62 61 60 59 57 57 57 59 58 57 57 58 60 63 63 64 65 67 68 66 66 66 65 65
46 41 39 30 29 36 33 33 49 50 50 50 50 52 52 54 54 55 54 56 58 60 61 61 61 60 58 58 60 58 56 56 56 56 58 57 57 58 61 63 63 64 67 67 67 65 65 65 65